CST,Max TemperatureF,Mean TemperatureF,Min TemperatureF,Max Dew PointF,MeanDew PointF,Min DewpointF,Max Humidity, Mean Humidity, Min Humidity, Max Sea Level PressureIn, Mean Sea Level PressureIn, Min Sea Level PressureIn, Max VisibilityMiles, Mean VisibilityMiles, Min VisibilityMiles, Max Wind SpeedMPH, Mean Wind SpeedMPH, Max Gust SpeedMPH,PrecipitationIn, CloudCover, Events, WindDirDegrees
2013-1-1,24,18,12,21,16,10,100,90,80,30.25,30.19,30.08,10,7,2,7,4,,0.00,3,,332
2013-1-2,33,22,12,28,19,9,93,87,74,30.31,30.22,30.16,10,10,10,15,4,,0.01,0,,295
2013-1-3,33,24,14,23,18,10,93,81,60,30.44,30.37,30.31,10,10,10,13,8,,0.01,0,,274
2013-1-4,37,28,19,32,26,18,100,84,70,30.35,30.24,30.12,10,10,5,22,12,26,0.00,3,,214
2013-1-5,41,32,23,30,26,18,93,77,52,30.36,30.17,30.05,10,10,10,24,12,26,0.00,0,,281
2013-1-6,48,34,21,30,25,18,93,72,40,30.39,30.31,30.18,10,10,10,16,9,20,0.00,0,,230
2013-1-7,50,40,30,28,26,23,80,66,40,30.18,30.06,29.94,10,10,10,22,13,28,0.00,0,,200
2013-1-8,55,42,30,32,29,25,87,70,41,30.18,29.98,29.90,10,10,10,21,11,26,0.00,0,,217
2013-1-9,50,39,28,36,30,27,93,72,43,30.39,30.27,30.14,10,10,5,17,10,23,0.03,3,,14
2013-1-10,42,38,35,41,38,36,100,94,87,30.13,29.87,29.67,10,6,0,16,9,23,0.34,6,,225
2013-1-11,60,46,32,39,30,18,87,57,33,29.87,29.64,29.53,10,10,10,37,17,47,0.00,0,,232
2013-1-12,32,24,17,27,17,12,93,73,55,30.07,29.98,29.87,10,9,1,17,10,25,0.00,5,,12
2013-1-13,28,20,12,14,11,9,86,69,47,30.24,30.17,30.06,10,10,10,15,8,,0.00,1,,20
2013-1-14,30,22,14,19,14,10,86,69,51,30.31,30.24,30.18,10,10,10,12,5,,0.00,2,,121
2013-1-15,33,25,17,21,17,14,86,74,52,30.22,30.18,30.14,10,10,10,9,4,,0.00,2,,282
2013-1-16,53,36,19,30,24,14,86,66,38,30.31,30.16,30.09,10,10,10,22,10,26,0.00,2,,308
2013-1-17,51,38,26,28,26,23,87,69,38,30.52,30.43,30.31,10,10,10,13,8,,0.00,0,,276
2013-1-18,62,47,32,30,28,27,87,63,26,30.38,30.20,30.06,10,10,10,29,14,38,0.00,0,,207
2013-1-19,60,43,26,27,21,18,86,51,19,30.25,30.15,30.04,10,10,10,18,8,25,0.00,0,,325
2013-1-20,62,42,23,30,24,18,87,58,19,30.31,30.18,30.06,10,10,10,22,8,28,0.00,0,,238
2013-1-21,44,30,17,25,20,12,93,70,39,30.37,30.26,30.14,10,10,10,14,8,,0.00,0,,225
2013-1-22,62,44,26,28,24,18,93,59,18,30.18,30.12,30.08,10,10,10,12,8,,0.00,0,,132
2013-1-23,71,47,23,32,25,19,93,58,14,30.19,30.14,30.08,10,10,7,15,7,,0.00,0,,229
2013-1-24,35,30,24,30,24,19,93,80,74,30.25,30.15,30.05,10,8,5,14,9,20,0.00,3,,76
2013-1-25,53,40,26,28,26,21,93,64,28,30.24,30.16,30.07,10,9,5,12,6,,0.00,0,,37
2013-1-26,59,44,28,36,30,25,86,63,31,30.16,30.03,29.90,10,10,7,20,10,25,0.00,2,,165
2013-1-27,73,58,42,46,37,32,93,55,22,29.89,29.79,29.72,10,10,5,30,18,39,0.00,0,,206
2013-1-28,71,56,41,36,32,28,70,41,21,29.83,29.75,29.66,10,10,10,29,16,37,0.00,0,,216
2013-1-29,57,42,28,36,31,25,100,76,33,29.78,29.64,29.55,10,9,5,26,16,36,0.00,7,,338
2013-1-30,44,34,23,25,16,3,86,57,20,30.03,29.95,29.79,10,10,10,23,17,29,0.00,1,,287
2013-1-31,50,36,21,28,20,14,86,58,32,30.29,30.11,29.96,10,10,10,20,9,26,0.00,0,,16